Terminal Aerodrome Forecast
Issued by NWS Sterling, VA

Current Version | Previous Version | Graphics & Text | Print | Product List | Glossary On
Versions: 1 2 3 4 5 6 7 8 9 10 11 12 13 14 15 16 17 18 19 20 21 22 23 24 25 26 27 28 29
000
FTUS41 KLWX 301501 AAA
TAFDCA
TAF AMD
KDCA 301501Z 3015/0112 00000KT P6SM FEW060 BKN150
     FM302200 09007KT P6SM SHRA OVC045
     FM010400 06011KT P6SM -SHRA OVC045
     FM010800 05014G20KT 6SM -SHRA OVC010=

USA.gov is the U.S. government's official web portal to all federal, state and local government web resources and services.